GFSSW_250_rhum_159.txt.gz
RH
13 14 15 16 16 16 16 16 17 18 18 19 20 20 20 20 18 17 16 15 15 16 16 16 14 13 12 11 12 12 12 11 11 57 85 51 60 84 56 81 43 77 55 44 41
14 14 14 14 14 14 14 14 14 14 15 15 14 14 14 13 13 13 12 12 12 12 12 12 11 11 11 11 11 12 11 11 14 78 54 54 76 99 84 74 47 67 54 57 48
15 15 14 14 14 14 14 13 13 13 13 13 13 12 12 12 11 11 11 10 10 10 10 10 9 9 9 10 10 10 10 11 16 28 75 80 85 100 100 90 46 41 57 71 54
18 18 17 17 16 16 16 16 16 16 16 16 15 14 14 14 13 13 12 12 12 11 10 10 10 9 9 9 9 9 10 10 11 46 55 100 100 91 74 98 48 37 51 85 52
14 14 14 15 15 16 16 15 15 14 14 13 13 12 12 12 12 12 12 12 12 11 11 10 10 9 9 9 9 9 8 9 10 59 99 97 98 78 90 70 95 39 37 88 72
14 14 14 14 14 14 14 14 14 14 14 14 13 13 13 13 13 12 12 12 11 11 11 11 10 10 9 9 9 8 9 9 10 34 100 100 97 97 100 80 96 43 44 93 81
17 17 17 16 16 15 15 15 15 15 15 14 14 15 16 15 15 15 14 14 13 12 12 11 10 10 10 10 10 9 8 10 22 31 54 84 100 100 96 70 59 54 68 92 67
20 19 20 19 18 18 17 17 17 17 17 17 17 16 16 15 15 14 14 13 13 13 13 13 13 13 12 11 11 11 10 27 71 100 83 97 100 100 98 65 60 68 54 100 70
20 20 20 19 19 20 19 19 18 15 15 15 15 14 13 13 16 24 34 41 40 36 32 30 30 32 31 18 12 11 11 19 97 100 100 100 100 100 100 80 61 70 72 82 73
16 16 16 15 15 15 15 15 14 15 16 16 15 16 23 35 41 39 39 37 34 36 35 37 39 40 39 35 32 15 11 11 14 42 93 100 100 100 90 98 100 87 90 62 98
17 16 16 17 18 17 17 16 17 19 21 30 36 45 48 42 36 40 38 36 37 40 42 47 50 42 47 50 44 32 32 14 10 11 66 100 100 100 100 83 100 100 95 71 78
19 19 18 18 20 23 31 41 54 46 74 54 47 43 41 39 44 43 45 44 42 45 44 46 54 43 50 53 55 51 43 38 30 10 12 94 97 94 92 76 100 79 91 93 92
19 25 35 45 53 51 53 53 47 42 43 35 40 47 41 39 44 50 40 42 45 44 46 44 56 47 45 50 57 54 48 40 31 28 13 18 95 94 75 78 96 95 96 96 78
56 54 49 48 45 46 44 42 40 37 42 35 36 48 46 47 41 48 53 52 46 44 48 37 53 45 47 48 52 52 52 49 48 34 24 21 26 94 96 99 100 100 100 100 100
40 43 45 45 45 47 49 51 53 54 52 60 63 59 57 57 48 46 42 45 46 48 53 39 45 48 52 40 47 44 55 53 54 53 32 27 25 23 52 75 100 100 100 100 100
44 44 43 44 45 48 48 47 45 45 45 56 62 80 93 100 88 81 68 60 57 52 54 37 40 46 43 39 38 38 53 59 55 55 36 34 33 26 25 49 81 75 79 90 98
54 64 66 78 77 78 82 82 70 72 82 64 76 73 57 48 57 65 63 52 46 47 49 44 40 42 37 35 36 39 44 52 48 46 40 37 50 37 34 29 40 52 36 19 37
64 56 57 61 64 70 67 58 48 56 61 69 93 75 61 47 40 43 55 53 44 48 46 47 39 45 60 60 47 45 46 64 56 56 53 44 46 56 46 36 28 25 21 12 15
72 72 69 69 70 67 63 62 59 56 53 52 61 60 63 66 56 57 59 62 68 64 57 50 50 38 43 67 70 75 92 80 60 68 67 52 48 45 47 48 38 27 22 10 10
74 82 80 78 74 74 66 61 65 73 95 84 81 91 90 83 78 74 74 77 74 72 65 64 61 51 45 39 49 77 80 90 92 85 77 65 55 54 41 52 46 30 31 15 10
44 41 40 46 44 42 48 54 54 49 43 44 40 40 40 42 61 89 100 100 99 79 56 44 43 48 51 44 44 48 52 50 65 82 78 64 65 48 42 67 54 34 31 24 12
42 48 60 62 62 66 70 71 68 57 62 63 57 51 50 45 45 44 53 63 81 79 55 51 53 59 56 51 43 36 33 30 28 51 56 53 78 50 43 74 57 34 36 32 12
75 79 75 84 96 94 95 100 100 91 79 67 67 61 57 52 42 41 43 47 55 71 66 68 70 68 63 59 50 45 42 37 28 55 68 62 100 57 72 88 74 49 48 43 15
66 82 100 100 98 99 90 84 91 83 63 56 52 51 54 61 52 46 49 56 48 63 80 83 90 96 94 74 54 53 45 40 36 31 63 76 100 64 89 100 83 46 39 100 29
78 68 72 85 98 100 100 100 100 86 75 57 56 54 54 56 61 59 54 59 69 54 70 75 88 89 97 100 77 59 58 43 40 31 63 75 78 75 88 100 87 48 35 32 70
74 82 87 89 80 84 92 98 99 95 85 74 70 61 55 53 54 57 70 74 67 67 73 77 70 86 100 86 93 84 61 56 45 36 34 70 66 94 79 87 58 46 41 31 36
60 66 65 74 74 78 85 92 91 96 92 83 77 65 66 69 79 79 80 78 82 68 57 67 68 79 96 92 78 82 80 59 47 40 36 39 67 88 85 84 59 54 43 35 31

GFSSW_250_rhum_162.txt.gz
RH
17 17 19 23 26 27 28 27 27 26 26 27 27 26 24 22 21 21 21 19 18 18 16 16 16 16 17 17 15 13 13 13 13 12 12 13 21 37 63 75 68 38 56 50 52
14 15 16 17 17 18 18 18 17 17 17 17 18 17 17 18 18 18 17 16 15 14 13 13 13 13 13 13 12 12 11 12 12 12 12 17 33 44 80 98 81 36 59 65 54
14 14 14 14 15 15 15 15 15 14 14 14 14 14 14 13 13 12 12 11 11 10 10 10 10 10 10 10 10 10 10 10 12 12 11 14 33 72 72 85 85 31 30 68 55
17 16 16 16 15 15 14 14 14 14 13 13 13 13 13 13 13 12 11 11 10 10 11 10 10 10 9 9 9 9 9 10 10 11 11 15 36 89 98 73 86 54 24 54 63
19 19 18 18 18 18 17 16 16 16 16 16 15 15 15 15 14 13 12 12 12 12 11 11 11 11 10 10 10 9 9 9 9 10 11 18 38 44 95 66 57 58 38 55 77
14 14 15 15 16 16 16 16 15 15 14 14 14 13 12 13 12 12 12 11 11 11 11 10 11 11 10 10 9 9 9 9 10 35 27 47 71 73 74 62 96 92 74 44 94
18 17 16 16 15 15 15 14 14 14 14 14 14 13 13 14 13 13 13 12 12 12 12 11 11 10 10 10 11 11 10 9 10 29 18 100 94 74 83 90 99 80 51 44 84
20 19 19 18 18 17 17 16 16 15 15 14 15 15 15 15 15 15 14 13 12 13 12 12 12 12 11 11 12 12 11 12 12 26 62 84 86 95 83 100 100 89 66 48 79
21 21 21 20 20 20 20 20 20 19 17 16 16 16 14 15 14 14 13 17 25 29 30 32 32 34 31 30 26 13 11 11 12 66 100 86 67 91 88 81 79 68 76 61 62
21 20 19 18 19 17 16 16 15 14 13 12 13 14 14 14 15 22 41 38 42 34 31 34 46 49 42 41 39 34 35 14 11 13 89 100 100 76 76 85 100 64 59 71 79
17 17 16 16 16 16 16 15 15 15 15 17 16 17 22 32 45 39 38 37 35 35 33 39 50 52 54 46 48 45 41 29 28 11 11 16 89 90 98 76 76 78 59 58 74
21 19 17 17 18 18 18 17 18 22 36 38 38 61 40 40 43 51 42 41 37 38 37 39 52 55 55 52 51 49 47 38 31 26 16 11 12 96 100 99 85 86 60 82 85
21 20 19 20 20 23 35 44 49 48 64 39 47 60 47 43 42 41 43 42 42 42 45 39 40 45 54 59 58 54 52 50 44 37 29 24 11 12 91 99 91 87 89 80 84
34 36 46 54 57 57 52 46 40 39 41 32 39 42 39 41 43 39 38 39 42 47 51 42 48 42 46 49 54 49 59 65 60 46 44 38 26 11 18 95 85 87 63 89 95
66 59 50 45 46 46 47 47 47 49 53 59 52 56 55 46 42 46 52 51 54 54 52 48 53 53 46 41 54 39 53 54 58 50 38 44 44 31 19 28 99 82 75 73 92
46 46 46 46 46 46 47 51 55 51 54 63 65 59 59 66 70 88 99 92 87 95 75 55 56 58 43 37 42 36 46 52 49 53 38 37 59 42 35 25 34 82 77 79 88
64 69 68 70 72 77 75 72 68 68 91 100 99 88 81 89 88 77 64 55 57 62 60 50 52 53 49 43 43 38 37 41 44 47 48 39 90 50 37 33 28 26 38 65 89
91 85 82 75 65 66 71 70 63 83 81 88 87 74 79 86 82 84 74 63 57 57 58 51 45 50 52 49 36 42 56 65 44 47 48 49 86 75 50 39 34 33 32 32 56
75 71 69 65 67 67 64 63 67 85 94 100 100 100 100 92 80 74 71 67 62 59 58 60 61 55 71 56 39 41 40 39 62 85 64 58 79 100 68 50 48 42 48 36 33
72 76 71 68 64 46 46 47 47 52 48 49 54 52 51 67 63 66 90 96 98 94 86 80 82 73 67 70 63 56 43 40 36 58 87 90 74 100 70 58 59 46 51 46 35
70 54 45 43 39 47 61 61 53 52 57 60 64 67 66 64 68 65 52 54 52 47 56 76 93 100 96 98 72 47 40 46 47 39 48 57 91 97 95 85 71 54 50 59 46
68 68 68 68 73 75 79 74 66 72 83 88 82 75 70 73 65 58 56 52 53 56 49 45 49 79 97 96 72 52 53 52 44 39 35 41 96 59 79 86 80 71 67 65 54
59 62 60 64 65 65 64 68 75 75 83 98 86 80 75 64 56 54 51 51 51 53 51 45 46 50 57 84 74 61 55 54 51 45 37 31 46 34 59 81 87 80 94 83 64
76 75 68 73 74 79 79 80 86 87 73 78 80 97 91 79 69 49 41 46 52 56 52 49 48 49 77 66 72 72 70 64 55 46 42 37 40 34 80 96 91 100 100 94 73
62 66 55 45 47 49 59 67 79 82 83 80 77 79 84 86 87 82 71 57 49 50 50 50 52 58 61 100 78 70 78 78 77 57 45 40 39 31 47 86 94 89 100 100 79
37 37 45 50 53 56 52 52 54 70 83 86 94 84 86 93 100 100 94 84 72 59 52 50 48 53 64 79 100 94 71 65 70 68 55 40 42 39 31 63 100 98 100 85 83
50 54 59 65 63 64 69 69 68 73 72 80 96 99 97 93 99 99 92 88 84 82 72 60 60 50 52 65 86 100 100 74 63 63 67 58 48 42 43 54 82 98 98 93 73

GFSSW_250_rhum_165.txt.gz
RH
20 22 29 33 39 40 39 36 34 31 27 28 27 26 23 21 20 21 22 22 21 20 19 18 17 16 15 15 15 16 16 16 14 13 13 12 12 12 17 72 67 64 20 48 69
17 19 20 23 28 30 31 31 30 28 26 25 24 23 22 21 21 22 21 20 19 18 17 16 16 14 13 12 12 12 12 12 12 12 12 12 12 12 17 67 63 67 25 44 54
14 16 18 18 18 19 20 21 21 20 19 17 16 15 15 15 15 15 15 14 14 14 13 12 11 11 10 10 10 10 10 10 10 11 11 12 12 14 17 63 62 56 28 32 47
15 14 14 14 15 16 17 16 16 16 15 14 14 13 12 12 12 11 12 12 11 11 10 10 9 9 9 10 9 10 9 9 9 10 10 10 11 12 38 87 76 70 48 32 50
19 18 17 16 16 15 15 15 14 14 14 14 13 13 13 13 13 13 13 13 12 12 12 11 11 11 11 11 10 10 10 10 10 9 10 10 11 17 47 68 65 53 62 52 65
21 20 20 19 18 17 16 16 16 16 15 15 15 15 15 14 14 13 13 12 12 12 12 11 11 11 11 11 11 11 10 9 9 9 10 10 11 13 19 61 73 58 73 56 59
16 16 16 16 16 16 16 16 16 15 15 14 13 12 12 12 13 12 12 12 13 13 11 12 11 11 11 12 11 11 11 11 10 9 12 50 60 37 78 75 63 68 91 50 57
21 19 18 18 17 16 15 14 14 13 13 14 14 14 14 13 13 13 13 13 13 13 12 12 12 12 13 14 13 11 11 11 12 11 19 29 100 100 92 58 74 81 100 59 49
23 21 20 20 19 18 18 17 16 15 15 16 16 17 18 16 14 15 14 13 12 13 16 28 33 35 36 36 32 32 28 14 12 12 20 75 73 82 90 91 81 81 100 86 63
22 22 22 22 21 20 19 18 17 16 16 16 17 15 13 13 13 12 13 24 36 39 34 35 38 43 45 43 40 35 34 29 26 12 11 75 100 92 64 70 86 91 94 81 76
21 21 19 19 17 15 14 14 13 13 14 14 14 15 15 16 16 19 38 34 31 36 33 39 46 48 52 49 45 46 46 45 37 31 21 11 24 100 98 54 82 82 100 81 63
18 17 16 16 16 15 15 16 17 16 17 18 22 26 23 36 48 43 37 34 36 36 36 38 51 48 56 55 53 48 51 49 51 52 41 27 12 17 84 95 60 55 98 90 100
23 22 20 19 18 18 18 20 27 40 47 44 46 49 44 45 41 42 38 36 39 41 41 38 48 54 50 47 52 54 59 57 56 54 59 43 34 24 13 76 100 84 89 96 92
22 20 18 20 24 35 47 53 48 48 50 39 39 44 39 42 44 43 40 39 39 44 44 42 51 57 52 46 46 43 56 53 52 53 52 42 50 43 30 12 56 100 100 100 100
66 51 56 61 57 52 50 49 48 50 52 53 49 49 44 41 43 49 49 49 50 51 50 48 50 49 49 50 50 41 50 47 50 49 47 49 42 47 45 31 16 49 91 98 99
55 55 56 54 52 48 48 47 44 46 55 61 59 52 54 55 57 63 65 88 98 94 79 71 86 81 66 59 53 45 47 48 44 44 38 43 53 50 39 35 28 21 62 68 74
64 62 60 52 58 62 64 69 70 70 76 92 79 77 81 77 74 65 57 57 69 66 54 56 67 64 62 57 57 46 52 69 54 42 38 36 51 40 37 37 36 32 26 64 77
65 71 81 74 65 54 50 51 55 69 72 78 71 72 79 82 74 68 62 60 68 69 69 66 61 59 52 47 45 47 48 49 48 61 60 42 53 32 47 37 40 37 33 28 68
78 77 75 74 75 71 69 66 82 88 83 80 81 78 77 90 86 86 92 96 88 78 66 64 59 60 60 55 51 58 55 49 49 54 43 54 79 64 39 44 46 40 36 31 29
70 71 74 79 83 73 63 64 53 52 53 53 50 48 53 58 64 61 54 49 50 56 55 64 71 70 70 68 58 53 54 53 49 58 54 53 52 98 74 60 56 47 45 42 37
64 65 62 59 54 47 47 43 44 56 67 74 76 66 66 68 78 94 86 67 60 56 52 52 45 44 48 48 45 42 43 44 50 53 61 43 50 42 44 70 80 63 62 60 46
73 69 64 61 65 61 59 57 56 63 72 84 78 83 93 94 94 93 80 90 91 74 58 50 52 53 43 48 44 40 42 47 50 48 51 52 41 32 40 39 59 65 72 74 58
63 70 68 60 61 61 54 53 54 51 63 68 68 70 77 82 95 99 90 84 73 65 65 54 48 51 52 47 47 45 45 42 47 63 68 53 46 37 41 38 43 50 62 78 70
65 62 64 68 69 64 53 44 42 42 41 45 45 49 58 72 77 73 81 84 85 81 75 70 52 45 48 50 46 48 51 50 55 74 71 57 51 44 43 39 36 39 40 55 70
65 49 54 57 54 48 45 53 57 58 55 51 56 57 54 53 55 74 86 88 86 84 78 82 78 68 55 59 45 49 52 66 80 81 69 63 59 51 44 42 42 40 36 66 80
60 59 39 39 43 53 56 62 64 64 69 73 78 73 66 68 68 68 89 98 100 100 86 81 80 80 79 72 84 55 50 53 81 83 84 83 81 70 55 47 43 42 46 71 74
66 62 62 48 49 54 60 62 64 66 70 80 85 90 89 90 84 83 94 97 100 100 99 92 82 77 76 80 74 78 70 54 54 70 91 82 91 79 76 68 51 45 63 63 72

GFSSW_250_rhum_168.txt.gz
RH
22 26 31 33 40 47 38 32 33 36 36 35 33 30 26 24 23 22 21 20 20 20 19 18 18 17 16 16 16 14 14 14 14 14 14 14 12 12 12 13 46 55 32 39 47
19 21 23 30 35 42 44 41 38 36 34 33 29 26 26 26 25 24 22 20 19 18 18 18 18 16 15 14 14 13 12 11 11 12 12 12 11 11 11 13 37 65 35 35 42
16 18 20 21 25 31 34 36 36 34 32 29 26 24 22 20 17 17 16 16 16 15 15 14 13 12 12 11 10 10 9 9 9 9 9 10 10 10 11 12 43 76 45 34 44
14 15 17 18 19 20 21 23 25 25 24 22 20 18 16 15 14 13 12 12 11 11 11 10 10 10 10 10 10 10 10 10 9 9 9 9 10 10 11 17 60 91 55 47 54
16 14 14 15 16 16 16 16 16 16 16 15 15 14 13 13 12 13 13 13 13 12 12 12 11 12 11 11 11 10 10 10 10 9 9 9 10 10 11 29 66 79 63 57 65
21 19 16 15 14 13 13 12 12 13 13 13 13 13 13 14 14 14 14 14 14 13 12 12 12 12 12 12 11 11 11 10 10 10 9 9 10 11 28 66 36 76 65 67 54
22 22 21 19 18 16 16 15 15 15 15 14 15 16 16 15 14 14 14 14 13 13 12 12 11 12 11 11 11 10 10 10 10 9 9 9 19 15 41 28 72 82 98 75 47
17 18 18 18 18 17 16 16 16 15 15 14 14 13 13 14 14 14 14 14 14 13 13 13 12 12 12 12 14 16 14 11 10 10 10 13 84 100 71 74 100 72 74 100 55
20 19 18 16 15 14 13 13 14 14 15 15 15 15 13 13 14 14 14 14 14 14 13 13 16 29 37 38 35 33 31 28 23 11 11 18 46 100 100 96 99 90 79 95 81
22 21 20 18 17 16 16 15 15 15 16 16 16 15 15 16 15 14 14 13 13 14 28 38 38 42 50 51 44 44 39 32 30 27 12 36 65 65 77 90 91 73 75 98 100
22 20 21 20 18 18 17 17 16 16 16 17 16 15 13 12 13 14 14 14 22 37 42 42 40 40 50 57 53 50 52 45 44 38 31 17 23 96 93 60 94 79 72 87 90
19 19 20 18 16 15 14 14 14 15 15 15 15 15 15 16 17 15 20 32 35 33 39 45 38 37 45 54 58 58 63 56 49 43 32 32 24 12 70 83 64 87 71 97 92
18 17 16 17 16 16 16 16 18 18 18 20 23 32 34 32 38 40 39 39 36 36 38 42 53 49 47 47 50 52 62 60 54 53 42 37 31 26 13 27 81 56 61 67 94
21 22 21 21 19 19 20 29 41 46 48 48 45 45 45 38 44 46 39 36 42 41 40 47 54 56 55 53 48 49 56 57 53 50 46 43 40 36 28 15 32 100 100 75 92
21 22 23 29 38 50 61 57 51 48 46 46 45 45 42 39 38 38 39 42 41 42 42 44 55 62 60 60 50 48 53 55 53 47 42 46 45 44 34 26 19 20 99 96 67
60 62 62 60 56 54 52 50 49 49 47 45 46 46 50 51 58 59 58 59 61 60 72 78 66 59 56 59 64 58 62 57 55 46 39 44 40 43 36 32 26 22 16 61 100
50 51 52 53 52 49 50 49 50 62 66 66 62 63 68 73 69 63 59 57 55 53 55 60 58 58 78 88 79 63 59 50 45 42 37 40 37 32 37 39 33 27 25 17 48
60 58 56 59 68 69 59 58 64 61 54 52 56 67 70 73 69 67 67 68 65 67 65 65 63 72 69 68 62 63 53 54 54 49 42 43 41 28 34 32 37 37 29 24 22
68 66 71 73 81 74 73 76 70 70 71 75 78 83 91 94 85 77 73 82 86 96 97 93 71 62 54 60 60 56 59 58 62 63 61 72 66 46 29 41 32 34 39 36 26
62 63 64 66 69 70 74 79 77 73 74 72 50 52 55 57 52 47 49 52 52 50 47 45 46 60 69 67 63 57 56 56 53 59 62 65 84 56 33 26 35 38 34 37 39
62 61 61 61 62 60 59 63 58 51 50 46 46 51 60 65 71 59 54 60 62 64 67 54 50 44 49 48 44 44 43 49 47 51 54 58 82 55 42 42 40 37 40 43 46
64 68 68 64 62 61 61 62 66 68 66 64 63 64 64 66 67 74 84 88 92 91 88 85 72 75 69 66 56 47 49 48 42 40 37 39 82 42 63 56 48 39 38 40 49
67 67 68 70 64 64 64 60 61 66 64 62 63 60 59 59 57 60 76 84 88 82 85 86 79 82 80 62 55 54 49 50 46 46 48 51 52 35 59 70 59 46 37 40 37
81 72 66 69 65 54 49 62 58 62 70 63 48 50 53 50 54 57 56 58 59 63 77 84 84 86 85 82 66 66 56 45 43 44 52 55 58 44 59 67 63 49 42 42 44
63 74 70 63 64 64 56 42 40 37 41 46 55 60 61 61 61 68 70 68 64 62 62 65 68 77 86 95 83 72 69 57 48 50 48 77 79 68 66 72 62 53 48 44 40
52 66 71 69 68 68 64 61 54 44 53 55 57 62 62 63 67 72 83 83 82 78 76 71 73 77 90 98 100 92 76 70 69 55 52 61 96 80 70 66 68 58 51 45 41
78 69 74 82 83 78 75 73 71 71 56 54 60 63 62 64 73 79 89 88 90 91 91 88 88 78 93 98 90 99 100 81 70 74 64 54 87 74 79 74 78 83 63 53 47

GFSSW_250_rhum_171.txt.gz
RH
23 27 27 27 26 29 36 33 37 42 39 38 36 35 32 28 24 22 20 18 18 18 18 17 17 17 16 15 15 15 15 15 15 14 13 11 22 17 12 12 12 40 67 36 38
20 23 26 29 30 31 38 45 40 32 33 35 36 35 33 30 26 21 19 18 17 16 16 15 15 15 15 15 15 14 14 13 12 12 11 10 10 13 11 11 12 31 70 42 38
19 20 21 23 27 32 36 46 48 43 38 36 35 34 32 28 24 20 18 17 16 16 16 15 15 15 13 13 12 11 10 10 9 9 8 8 9 9 10 11 13 67 54 60 40
14 18 19 20 20 23 29 34 39 39 38 36 34 31 27 24 21 18 15 13 12 11 11 10 10 10 10 9 9 9 9 9 9 9 8 8 9 14 16 14 14 99 85 74 49
14 14 15 18 19 19 20 21 24 26 27 27 25 22 20 18 16 14 13 12 11 11 11 12 12 12 11 10 10 10 10 10 9 9 8 8 9 10 11 11 16 100 100 78 62
18 16 15 14 16 17 17 18 17 17 17 17 16 16 15 14 14 13 13 13 13 13 13 13 12 12 12 11 11 10 10 10 9 9 8 8 8 10 13 11 23 96 100 95 66
22 20 18 16 15 14 14 14 14 13 13 14 14 14 14 14 15 14 14 14 13 13 12 12 12 11 11 10 10 10 10 10 9 9 9 50 100 12 14 29 100 72 97 100 58
23 24 22 20 18 17 16 16 16 16 16 17 17 16 16 15 14 14 13 13 12 12 12 11 12 11 11 11 11 13 16 20 18 10 10 13 95 26 17 99 100 44 100 100 65
18 19 20 20 20 19 19 18 17 16 16 15 14 14 14 14 14 14 14 13 13 13 13 13 12 12 19 28 31 30 31 28 28 26 13 10 10 100 100 79 71 100 88 99 100
22 19 17 16 16 16 15 15 14 14 14 14 14 14 14 15 15 15 16 16 15 14 14 13 24 34 44 43 40 39 39 38 35 29 24 12 13 34 100 99 54 100 99 67 93
22 19 16 15 15 15 14 14 15 16 16 15 15 15 15 16 16 17 15 14 13 12 14 44 37 36 44 48 50 47 47 43 45 38 32 24 12 72 92 53 88 96 83 69 44
20 18 17 16 16 16 16 16 17 17 17 17 17 17 16 14 14 14 14 14 14 18 37 46 36 36 39 49 57 60 57 44 45 41 40 37 27 12 27 100 47 51 60 85 64
18 16 18 17 16 15 14 15 15 15 15 16 15 15 15 16 17 17 20 25 29 35 35 44 38 37 43 48 50 56 57 44 44 43 39 41 41 33 17 18 98 62 70 81 84
17 16 17 17 18 19 18 17 17 17 18 18 18 19 29 37 40 38 41 40 41 38 38 45 48 46 46 47 51 62 63 49 43 41 37 38 40 36 37 24 15 71 56 53 52
17 20 22 22 20 19 20 21 34 43 44 44 43 45 42 39 37 41 45 39 40 40 42 47 46 40 43 51 52 58 59 57 50 44 41 39 36 38 34 32 29 14 68 100 70
40 48 42 41 46 50 55 55 53 49 46 43 43 41 41 42 44 43 42 41 39 42 45 54 57 54 54 56 51 53 57 78 76 62 48 38 34 33 32 35 32 28 15 44 100
54 55 55 54 50 49 48 47 47 46 43 42 41 40 42 45 47 48 51 54 58 58 60 66 68 77 95 95 91 90 93 96 92 72 59 47 41 30 32 32 30 33 27 18 20
45 47 49 51 53 57 61 59 54 52 58 59 65 60 57 61 63 65 78 84 89 85 72 73 69 76 68 71 80 76 72 75 64 71 61 57 50 37 37 34 31 29 32 31 23
69 71 71 70 70 68 72 69 66 64 63 55 60 69 64 63 64 70 71 74 76 80 78 85 72 99 82 77 69 59 64 61 70 66 65 65 62 58 43 41 33 29 31 31 35
56 57 60 57 59 61 62 61 62 63 62 64 65 73 78 70 60 54 52 54 56 59 53 50 47 51 49 52 53 60 85 72 64 60 60 68 69 57 41 42 42 36 28 33 34
49 50 54 56 56 57 57 61 60 58 58 59 58 56 52 51 49 44 48 57 57 56 51 49 54 53 62 62 55 55 52 49 49 50 54 69 77 66 54 59 48 47 46 36 34
56 58 61 64 67 69 68 67 66 66 63 62 61 61 64 66 64 56 65 57 82 66 78 76 80 83 83 93 90 76 71 79 71 69 56 47 53 49 38 38 40 45 42 44 43
57 67 64 64 63 61 63 61 67 60 61 75 74 71 69 68 68 72 69 53 74 46 52 67 69 63 82 91 84 90 92 89 76 67 59 55 62 58 37 40 38 32 35 46 48
60 64 70 70 62 63 66 58 64 64 64 54 58 70 72 82 78 67 50 43 50 51 53 51 53 53 54 56 45 56 80 89 80 73 71 59 52 52 42 47 46 40 33 35 60
40 42 44 49 50 52 59 66 65 64 65 74 63 50 46 59 58 51 52 58 63 64 67 68 67 61 57 70 63 58 62 70 78 78 70 75 59 50 43 45 48 39 45 37 64
46 47 50 52 52 74 70 65 75 78 83 77 74 73 68 53 48 53 63 70 62 74 71 79 83 88 86 83 91 76 64 70 84 82 94 85 77 59 53 47 45 51 44 44 65
54 61 66 75 81 89 91 90 87 86 82 90 76 90 86 79 93 77 62 68 78 76 74 86 82 92 98 99 89 71 100 94 86 78 69 90 96 93 70 56 47 48 59 53 57

GFSSW_250_rhum_174.txt.gz
RH
24 26 28 27 27 28 27 27 29 40 42 40 40 39 37 33 29 27 25 22 20 19 18 17 17 16 16 15 15 15 15 14 27 14 100 38 18 13 19 22 12 12 23 62 44
19 22 26 27 26 27 29 29 29 28 33 41 39 35 35 32 29 26 24 22 20 17 15 14 14 14 14 14 14 14 13 14 14 18 30 37 20 10 10 11 13 15 50 59 52
18 19 21 24 26 26 27 27 31 37 39 33 36 37 33 31 28 27 26 22 18 16 15 14 14 14 13 14 13 12 11 11 17 12 12 10 16 17 26 20 86 19 34 63 54
15 19 19 20 22 25 27 29 31 41 45 42 37 32 32 31 31 28 24 19 16 14 12 11 10 10 9 9 9 9 9 9 8 8 13 32 27 32 31 56 24 34 37 73 70
14 15 18 20 20 20 22 24 28 32 42 44 42 38 35 33 28 21 19 16 14 12 11 10 10 10 10 10 10 10 11 10 9 12 9 8 8 8 21 58 25 14 50 89 63
17 15 15 16 18 20 20 20 20 22 25 26 26 25 23 20 18 16 14 12 12 12 12 12 12 11 11 10 10 10 9 9 9 10 8 8 48 38 10 16 16 24 100 98 71
19 18 17 16 15 16 18 18 18 19 19 18 18 17 16 15 14 13 12 12 13 13 12 12 11 11 10 10 10 10 9 9 99 26 19 36 100 100 74 25 17 23 100 88 89
20 22 20 19 18 16 15 15 16 16 16 15 14 13 13 14 14 14 14 13 13 12 11 11 11 10 11 11 11 11 13 13 92 90 14 32 100 100 98 25 95 100 100 97 90
16 21 24 23 22 20 18 17 16 16 15 15 15 16 16 15 15 14 13 12 11 11 11 11 12 12 12 14 25 30 28 34 26 22 14 10 11 66 100 44 100 100 74 100 88
19 17 20 22 22 22 21 20 19 18 17 17 16 15 13 14 14 13 13 12 12 12 13 14 13 15 26 38 40 36 35 35 29 23 23 20 16 19 100 100 95 100 100 87 100
24 18 16 18 19 18 18 17 17 16 14 14 13 15 12 15 15 15 14 14 14 14 14 13 14 36 38 42 45 40 40 39 39 38 32 26 20 21 32 89 100 35 100 100 78
26 20 18 18 17 16 16 14 14 15 15 16 16 16 15 14 15 16 17 15 13 13 14 16 32 36 35 38 46 48 45 41 41 45 44 37 32 24 35 65 78 92 81 97 75
34 22 18 16 16 16 16 16 16 17 17 17 17 17 16 15 14 14 14 15 16 16 20 33 32 35 34 37 40 44 41 36 38 40 43 46 42 37 31 18 47 78 54 87 84
30 17 17 16 17 17 17 16 15 15 15 15 14 15 16 15 16 18 23 31 36 33 36 36 36 36 39 44 45 45 45 43 39 37 37 39 41 42 39 33 25 40 100 68 99
15 15 16 16 17 19 20 19 18 18 17 17 17 18 21 27 39 44 42 43 40 40 42 44 41 40 43 48 45 48 49 49 45 40 37 34 36 37 39 43 35 28 16 90 66
17 18 21 22 21 20 21 21 20 29 42 40 44 41 43 43 41 38 39 40 40 40 44 47 47 43 47 50 48 52 62 59 52 51 53 48 46 34 34 36 41 35 31 20 64
38 37 39 40 42 50 51 54 52 51 49 48 46 45 43 42 42 41 45 49 52 54 54 60 60 60 70 75 95 100 100 100 100 100 96 66 64 46 30 39 34 36 37 36 26
51 50 48 50 50 47 45 47 47 48 49 47 50 52 57 58 61 64 67 68 74 70 66 73 75 70 80 67 68 66 62 79 63 78 60 58 46 43 39 34 36 32 31 38 34
53 55 56 56 56 58 60 55 60 74 77 72 70 60 61 63 56 56 58 69 70 68 67 71 67 80 90 82 84 74 90 73 74 78 70 77 64 50 44 39 39 39 34 32 35
54 53 54 53 54 54 53 51 54 56 61 63 64 67 67 62 65 61 73 75 74 71 66 68 65 76 93 98 96 82 76 71 75 78 93 87 73 59 43 41 53 52 48 38 38
43 46 48 50 50 50 50 51 54 50 54 56 57 58 60 56 64 63 58 62 54 48 49 49 53 54 55 58 53 54 57 59 58 61 56 53 59 65 64 56 50 49 38 50 40
47 47 54 52 52 53 51 56 55 52 59 55 58 58 58 60 60 61 59 56 55 55 52 56 67 74 74 85 77 80 95 91 93 100 84 71 74 72 46 40 43 45 44 35 42
45 49 43 51 57 64 65 71 67 64 62 58 61 57 57 56 59 64 65 56 62 80 62 70 77 73 72 72 70 65 72 91 95 86 84 88 96 92 64 46 39 38 33 31 34
41 39 44 44 48 48 53 64 60 63 73 70 81 74 66 67 64 58 61 55 66 82 77 60 66 53 50 50 44 39 50 65 63 49 61 62 78 100 91 63 45 41 36 34 31
51 52 49 48 45 42 41 42 45 48 56 59 68 74 75 82 88 80 70 66 43 75 89 70 48 50 48 56 56 56 51 59 62 74 61 64 62 76 77 55 46 47 38 38 34
51 49 47 42 43 53 54 55 63 64 69 78 90 76 85 100 84 83 100 100 98 52 65 57 50 58 63 68 71 69 71 63 69 91 89 86 79 94 84 77 58 53 50 40 36
55 44 44 54 66 73 80 87 80 78 80 79 82 100 100 86 99 100 94 91 92 86 79 99 93 68 76 80 76 68 84 90 86 94 92 91 100 99 95 81 59 45 43 57 53